Sigfox identifier Datetime Temperature Humidity SNR
002E670E 2019-04-23 14:51:04 16.5 29 23.5
002E670E 2019-04-23 14:17:44 16.5 29 23.6
002E670E 2019-04-23 13:44:23 16.3 29 23.6
002E670E 2019-04-23 13:11:01 16.3 29 23.6
002E670E 2019-04-23 12:37:41 16.2 29 23.8
002E670E 2019-04-23 12:04:20 16 29 23.8
002E670E 2019-04-23 11:30:59 16 29 23.7
002E670E 2019-04-23 10:57:37 16 28 23.6
002E670E 2019-04-23 10:24:17 15.8 28 23.7
002E670E 2019-04-23 09:50:57 15.8 28 23.9
002E670E 2019-04-23 09:17:38 15.8 28 23.9
002E670E 2019-04-23 08:44:18 15.8 28 23.9
002E670E 2019-04-23 08:10:58 15.8 28 23.8
002E670E 2019-04-23 07:37:36 15.8 28 23.9
002E670E 2019-04-23 07:04:17 15.8 28 24
002E670E 2019-04-23 06:30:56 15.8 28 23.9
002E670E 2019-04-23 05:57:37 15.7 28 23.9
002E670E 2019-04-23 05:24:17 15.7 28 23.9
002E670E 2019-04-23 04:50:56 15.7 28 24
002E670E 2019-04-23 04:17:36 15.7 28 24
002E670E 2019-04-23 03:44:16 15.7 28 24
002E670E 2019-04-23 03:10:57 15.7 28 24
002E670E 2019-04-23 02:37:36 15.8 28 24.1
002E670E 2019-04-23 02:04:16 15.8 28 24.1
002E670E 2019-04-23 01:30:56 15.8 28 24.1
002E670E 2019-04-23 00:57:36 15.8 28 24.1
002E670E 2019-04-23 00:24:16 15.8 28 24
002E670E 2019-04-22 23:50:54 15.8 28 24
002E670E 2019-04-22 23:17:33 15.8 28 23.9
002E670E 2019-04-22 22:44:13 15.8 28 23.9
002E670E 2019-04-22 22:10:51 15.9 28 23.9
002E670E 2019-04-22 21:37:31 16 28 23.9
002E670E 2019-04-22 21:04:10 16 28 23.9
002E670E 2019-04-22 20:30:50 16 28 23.8
002E670E 2019-04-22 19:57:29 16 28 23.7
002E670E 2019-04-22 19:24:09 16.1 28 23.7
002E670E 2019-04-22 18:50:49 16.2 28 23.7
002E670E 2019-04-22 18:17:27 16.3 28 23.7
002E670E 2019-04-22 17:44:06 16.3 28 23.6
002E670E 2019-04-22 17:10:45 16.2 28 23.6
002E670E 2019-04-22 16:37:24 16.1 28 23.6
002E670E 2019-04-22 16:04:03 16 28 23.6
002E670E 2019-04-22 15:30:43 16 28 23.6
002E670E 2019-04-22 14:57:22 16 28 23.6
002E670E 2019-04-22 14:24:02 16 28 23.5
002E670E 2019-04-22 13:50:41 16 28 23.4
002E670E 2019-04-22 13:17:19 16 28 23.5
002E670E 2019-04-22 12:43:57 16 28 23.5
002E670E 2019-04-22 12:10:37 15.9 28 23.5
002E670E 2019-04-22 11:37:17 15.8 27 23.5
002E670E 2019-04-22 11:03:57 15.9 27 23.5
002E670E 2019-04-22 10:30:39 15.8 27 23.5
002E670E 2019-04-22 09:57:20 15.8 27 23.5
002E670E 2019-04-22 09:24:00 15.8 27 23.6
002E670E 2019-04-22 08:50:40 15.8 27 23.6
002E670E 2019-04-22 08:17:19 15.8 27 23.5
002E670E 2019-04-22 07:43:59 15.8 27 23.5
002E670E 2019-04-22 07:10:39 15.8 27 23.5
002E670E 2019-04-22 06:37:20 15.8 27 23.5
002E670E 2019-04-22 06:04:01 15.8 27 23.4
002E670E 2019-04-22 05:30:40 15.8 27 23.5
002E670E 2019-04-22 04:57:20 15.8 27 23.5
002E670E 2019-04-22 04:24:00 15.8 27 23.5
002E670E 2019-04-22 03:50:40 15.8 27 23.5
002E670E 2019-04-22 03:17:20 15.8 27 23.6
002E670E 2019-04-22 02:44:01 15.8 27 23.6
002E670E 2019-04-22 02:10:43 15.7 27 23.5
002E670E 2019-04-22 01:37:24 15.8 27 23.6
002E670E 2019-04-22 01:04:05 15.6 27 23.6
002E670E 2019-04-22 00:30:45 15.6 27 23.7
002E670E 2019-04-21 23:57:25 15.6 27 23.7
002E670E 2019-04-21 23:24:05 15.6 27 23.7
002E670E 2019-04-21 22:50:44 15.6 27 23.7
002E670E 2019-04-21 22:17:24 15.6 27 23.6
002E670E 2019-04-21 21:44:03 15.6 27 23.5
002E670E 2019-04-21 21:10:42 15.6 27 23.5
002E670E 2019-04-21 20:37:21 15.6 27 23.6
002E670E 2019-04-21 20:04:01 15.6 27 23.5
002E670E 2019-04-21 19:30:40 15.6 27 23.4
002E670E 2019-04-21 18:57:19 15.6 27 23.4
002E670E 2019-04-21 18:23:59 15.6 27 23.5
002E670E 2019-04-21 17:50:39 15.6 27 23.5
002E670E 2019-04-21 17:17:19 15.6 27 23.5
002E670E 2019-04-21 16:43:58 15.6 27 23.6
002E670E 2019-04-21 16:10:38 15.6 27 23.7
002E670E 2019-04-21 15:37:19 15.6 27 23.5
002E670E 2019-04-21 15:03:54 15.6 27 23.5
002E670E 2019-04-21 14:30:32 15.6 27 23.5
002E670E 2019-04-21 13:57:13 15.6 26 23.5
002E670E 2019-04-21 13:23:52 15.6 26 23.5
002E670E 2019-04-21 12:50:29 15.5 26 23.5
002E670E 2019-04-21 12:17:08 15.6 26 23.6
002E670E 2019-04-21 11:43:47 15.6 26 23.5
002E670E 2019-04-21 11:10:26 15.6 26 23.6
002E670E 2019-04-21 10:37:06 15.6 26 23.6
002E670E 2019-04-21 10:03:46 15.6 26 23.5
002E670E 2019-04-21 09:30:26 15.7 26 23.6
002E670E 2019-04-21 08:57:09 15.8 26 23.6
002E670E 2019-04-21 08:23:52 15.8 26 23.7
002E670E 2019-04-21 07:50:34 15.8 26 23.9
002E670E 2019-04-21 07:17:17 15.8 26 23.8
002E670E 2019-04-21 06:44:00 15.8 26 23.8
002E670E 2019-04-21 06:10:41 15.8 26 23.9
002E670E 2019-04-21 05:37:25 15.8 26 23.8
002E670E 2019-04-21 05:04:07 15.8 26 23.8
002E670E 2019-04-21 04:30:49 15.8 26 23.9
002E670E 2019-04-21 03:57:31 15.8 26 23.8
002E670E 2019-04-21 03:24:12 15.7 26 23.9
002E670E 2019-04-21 02:50:56 15.8 26 23.8
002E670E 2019-04-21 02:17:39 15.6 26 23.8
002E670E 2019-04-21 01:44:22 15.7 26 23.8
002E670E 2019-04-21 01:11:05 15.7 26 23.9
002E670E 2019-04-21 00:37:46 15.7 26 23.9
002E670E 2019-04-21 00:04:28 15.6 26 23.9
002E670E 2019-04-20 23:31:09 15.6 26 24
002E670E 2019-04-20 22:57:50 15.6 26 24
002E670E 2019-04-20 22:24:32 15.6 26 23.9
002E670E 2019-04-20 21:51:14 15.6 26 23.8
002E670E 2019-04-20 21:17:55 15.6 26 23.8
002E670E 2019-04-20 20:44:35 15.6 26 23.8
002E670E 2019-04-20 20:11:17 15.6 26 23.9
002E670E 2019-04-20 19:37:58 15.6 26 23.8
002E670E 2019-04-20 19:04:39 15.6 26 23.7
002E670E 2019-04-20 18:31:21 15.7 26 23.7
002E670E 2019-04-20 17:58:02 15.6 26 23.6
002E670E 2019-04-20 17:24:42 15.6 26 23.6
002E670E 2019-04-20 16:51:21 15.6 25 23.6
002E670E 2019-04-20 16:18:02 15.6 25 23.6
002E670E 2019-04-20 15:44:42 15.6 25 23.6
002E670E 2019-04-20 15:11:22 15.6 25 23.6
002E670E 2019-04-20 14:38:02 15.6 25 23.5
002E670E 2019-04-20 14:04:41 15.6 25 23.6
002E670E 2019-04-20 13:31:20 15.6 25 23.5
002E670E 2019-04-20 12:58:00 15.6 25 23.6
002E670E 2019-04-20 12:24:38 15.6 25 23.6
002E670E 2019-04-20 11:51:18 15.6 25 23.6
002E670E 2019-04-20 11:17:57 15.6 25 23.6
002E670E 2019-04-20 10:44:38 15.6 25 23.5
002E670E 2019-04-20 10:11:18 15.7 25 23.5
002E670E 2019-04-20 09:37:58 15.6 25 23.5
002E670E 2019-04-20 09:04:39 15.8 25 23.5
002E670E 2019-04-20 08:31:18 15.8 25 23.6
002E670E 2019-04-20 07:57:58 15.8 25 23.7
002E670E 2019-04-20 07:24:38 15.8 25 23.7
002E670E 2019-04-20 06:51:17 15.8 25 23.7
002E670E 2019-04-20 06:17:55 15.8 25 23.6
002E670E 2019-04-20 05:44:34 15.8 25 23.6
002E670E 2019-04-20 05:11:14 15.8 25 23.6
002E670E 2019-04-20 04:37:55 15.8 25 23.5
002E670E 2019-04-20 04:04:35 15.8 25 23.5
002E670E 2019-04-20 03:31:16 15.9 25 23.6
002E670E 2019-04-20 02:57:57 15.8 25 23.7
002E670E 2019-04-20 02:24:36 15.9 25 23.7
002E670E 2019-04-20 01:51:16 16 25 23.8
002E670E 2019-04-20 01:17:54 16 25 23.8
002E670E 2019-04-20 00:44:34 16 25 23.8
002E670E 2019-04-20 00:11:13 16.1 25 23.9
002E670E 2019-04-19 23:37:52 16.1 25 23.7
002E670E 2019-04-19 23:04:30 16.1 25 23.8
002E670E 2019-04-19 22:31:09 16.2 25 23.8
002E670E 2019-04-19 21:57:47 16.3 25 23.8
002E670E 2019-04-19 21:24:26 16.3 25 23.7
002E670E 2019-04-19 20:51:04 16.3 25 23.7
002E670E 2019-04-19 20:17:43 16.3 25 23.6
002E670E 2019-04-19 19:44:22 16.3 24 23.6
002E670E 2019-04-19 19:11:00 16.3 24 23.6
002E670E 2019-04-19 18:37:39 16.5 24 23.6
002E670E 2019-04-19 18:04:22 16.4 24 23.5
002E670E 2019-04-19 17:30:58 16.4 24 23.5
002E670E 2019-04-19 16:57:38 16.3 24 23.5
002E670E 2019-04-19 16:24:18 16.3 24 23.6
002E670E 2019-04-19 15:50:59 16.3 24 23.5
002E670E 2019-04-19 15:17:39 16.3 24 23.3
002E670E 2019-04-19 14:44:20 16.2 24 23.5
002E670E 2019-04-19 14:11:00 16 24 23.5
002E670E 2019-04-19 13:37:40 16 24 23.4
002E670E 2019-04-19 13:04:19 16 24 23.5
002E670E 2019-04-19 12:30:59 16 24 23.3
002E670E 2019-04-19 11:57:39 16 24 23.2
002E670E 2019-04-19 11:24:18 16 24 23.3
002E670E 2019-04-19 10:50:57 16 24 23.2
002E670E 2019-04-19 10:17:36 16 24 23.3
002E670E 2019-04-19 09:44:15 15.9 24 23.5
002E670E 2019-04-19 09:10:55 15.9 24 23.4
002E670E 2019-04-19 08:37:35 15.9 24 23.5
002E670E 2019-04-19 08:04:15 15.9 24 23.5
002E670E 2019-04-19 07:30:55 15.9 24 23.5
002E670E 2019-04-19 06:57:35 16 24 23.5
002E670E 2019-04-19 06:24:15 16 24 23.5
002E670E 2019-04-19 05:50:54 16 24 23.5
002E670E 2019-04-19 05:17:33 16 24 23.5
002E670E 2019-04-19 04:44:13 16 24 23.6
002E670E 2019-04-19 04:10:53 16 24 23.6
002E670E 2019-04-19 03:37:33 16 24 23.5
002E670E 2019-04-19 03:04:15 16 24 23.5
002E670E 2019-04-19 02:30:56 16 23 23.6
002E670E 2019-04-19 01:57:37 16.1 23 23.8
002E670E 2019-04-19 01:24:17 16.3 23 23.7
002E670E 2019-04-19 00:50:58 16.3 23 23.7
002E670E 2019-04-19 00:17:39 16.4 23 23.7
002E670E 2019-04-18 23:44:23 16.5 23 23.8
002E670E 2019-04-18 23:10:59 16.5 23 23.8
002E670E 2019-04-18 22:37:39 16.7 23 23.8
002E670E 2019-04-18 22:04:20 16.7 23 23.8
002E670E 2019-04-18 21:31:02 16.7 23 23.9
002E670E 2019-04-18 20:57:43 16.7 23 23.8
002E670E 2019-04-18 20:24:24 16.7 23 23.8
002E670E 2019-04-18 19:51:06 16.8 23 23.8
002E670E 2019-04-18 19:17:47 16.7 23 23.7
002E670E 2019-04-18 18:44:29 16.7 23 23.8
002E670E 2019-04-18 18:11:10 16.7 23 23.9
002E670E 2019-04-18 17:37:50 16.7 23 23.9
002E670E 2019-04-18 17:04:31 16.7 23 23.9
002E670E 2019-04-18 16:31:11 16.7 23 23.9
002E670E 2019-04-18 15:57:51 16.7 23 24
002E670E 2019-04-18 15:24:31 16.5 23 24
002E670E 2019-04-18 14:51:10 16.5 23 24
002E670E 2019-04-18 14:17:51 16.4 23 23.9
002E670E 2019-04-18 13:44:32 16.3 23 24
002E670E 2019-04-18 13:11:14 16.3 23 23.9
002E670E 2019-04-18 12:37:56 16.3 23 23.9
002E670E 2019-04-18 12:04:39 16.3 23 24
002E670E 2019-04-18 11:31:21 16.3 23 24
002E670E 2019-04-18 10:58:03 16.3 23 24
002E670E 2019-04-18 10:24:45 16.3 23 24
002E670E 2019-04-18 09:51:26 16.1 23 24
002E670E 2019-04-18 09:18:07 16.1 22 23.8
002E670E 2019-04-18 08:44:49 16.3 22 23.8
002E670E 2019-04-18 08:11:30 16.3 22 23.8
002E670E 2019-04-18 07:38:11 16.3 22 23.8
002E670E 2019-04-18 07:04:53 16.3 22 23.7
002E670E 2019-04-18 06:31:33 16.3 22 23.8
002E670E 2019-04-18 05:58:15 16.1 22 23.8
002E670E 2019-04-18 05:24:57 16 22 23.8
002E670E 2019-04-18 04:51:40 16 22 23.8
002E670E 2019-04-18 04:18:23 16 22 23.8
002E670E 2019-04-18 03:45:05 16 22 23.8
002E670E 2019-04-18 03:11:46 16.1 22 23.7
002E670E 2019-04-18 02:38:29 16.3 22 23.5
002E670E 2019-04-18 02:05:11 16.3 22 23.3
002E670E 2019-04-18 01:31:54 16.5 22 23.2
002E670E 2019-04-18 00:58:34 16.5 22 23.1
002E670E 2019-04-18 00:25:17 16.5 22 23.1
002E670E 2019-04-17 23:51:58 16.7 22 22.9
002E670E 2019-04-17 23:18:38 16.7 22 22.8
002E670E 2019-04-17 22:45:19 16.7 22 22.7
002E670E 2019-04-17 22:11:58 16.7 22 22.5
002E670E 2019-04-17 21:38:38 16.7 22 22.3
002E670E 2019-04-17 21:05:18 16.6 22 22.2
002E670E 2019-04-17 20:31:59 16.5 22 22
002E670E 2019-04-17 19:58:41 16.6 22 22.1
002E670E 2019-04-17 19:25:21 16.5 22 21.8
002E670E 2019-04-17 18:52:02 16.5 22 21.6
002E670E 2019-04-17 18:18:43 16.5 22 21.4
002E670E 2019-04-17 17:45:24 16.5 22 21.2
002E670E 2019-04-17 17:12:08 16.5 21 21
002E670E 2019-04-17 16:38:50 16.5 21 20.9
002E670E 2019-04-17 16:05:34 16.5 21 20.7
002E670E 2019-04-17 15:32:15 16.5 21 20.4
002E670E 2019-04-17 14:59:00 16.5 21 20.1
002E670E 2019-04-17 14:25:42 16.6 21 19.8
002E670E 2019-04-17 12:45:50 16.8 21 19.8
002E670E 2019-04-17 12:12:33 16.7 21 19.8
002E670E 2019-04-17 11:39:16 16.7 21 19.7
002E670E 2019-04-17 11:05:58 16.7 21 19.6
002E670E 2019-04-17 10:32:40 16.5 21 19.6
002E670E 2019-04-17 09:59:23 16.6 21 19.4
002E670E 2019-04-17 09:26:04 16.7 21 20.9
002E670E 2019-04-17 08:52:45 16.7 21 20.8
002E670E 2019-04-17 08:19:26 16.9 21 20.7
002E670E 2019-04-17 07:46:08 17 21 20.6
002E670E 2019-04-17 07:12:49 17.1 21 20.6
002E670E 2019-04-17 06:39:31 17.3 21 20.8
002E670E 2019-04-17 06:06:15 17.3 21 20.9
002E670E 2019-04-17 05:32:56 17.4 21 20.9
002E670E 2019-04-17 04:59:38 17.4 21 21.1
002E670E 2019-04-17 04:26:19 17.5 21 21
002E670E 2019-04-17 03:53:01 17.5 21 20.9
002E670E 2019-04-17 03:19:42 17.6 21 20.7
002E670E 2019-04-17 02:46:21 17.8 21 20.6
002E670E 2019-04-17 02:13:01 17.8 21 20.5
002E670E 2019-04-17 01:39:41 17.8 21 20.3
002E670E 2019-04-17 01:06:22 17.8 21 20.3
002E670E 2019-04-17 00:33:03 17.7 21 20.5
002E670E 2019-04-16 23:59:46 17.5 21 20.7
002E670E 2019-04-16 23:26:28 17.5 20 20.9
002E670E 2019-04-16 22:53:11 17.8 20 20.8
002E670E 2019-04-16 22:19:52 18 20 20.9
002E670E 2019-04-16 21:46:33 18.2 20 21.3
002E670E 2019-04-16 21:13:13 18.5 20 21.6
002E670E 2019-04-16 20:39:54 18.6 20 21.8
002E670E 2019-04-16 20:06:33 18.8 20 22
002E670E 2019-04-16 19:33:14 18.8 20 20.9
002E670E 2019-04-16 18:59:54 18.8 20 21
002E670E 2019-04-16 18:26:33 18.8 20 21.2
002E670E 2019-04-16 17:53:12 19 20 21.5
002E670E 2019-04-16 16:46:28 19.4 20 21.6
002E670E 2019-04-16 16:13:08 19.6 20 21.5
002E670E 2019-04-16 15:39:48 19.9 20 21.3
002E670E 2019-04-16 15:06:28 20.2 20 21.4
002E670E 2019-04-16 14:33:08 20.7 20 21.2
002E670E 2019-04-16 13:26:30 21.2 21 21.5
002E670E 2019-04-16 12:53:13 21.2 20 21.5
002E670E 2019-04-16 12:19:53 21.2 20 21.8
002E670E 2019-04-16 11:46:37 21.1 20 22.1
002E670E 2019-04-16 11:13:16 21.1 20 22.4
002E670E 2019-04-16 10:39:58 21.1 20 22.5
002E670E 2019-04-16 10:06:39 21.1 20 22.4
002E670E 2019-04-16 09:33:19 21.1 20 22.4
002E670E 2019-04-16 09:00:01 21 20 22.5
002E670E 2019-04-16 08:26:43 21 20 22.5
002E670E 2019-04-16 07:53:25 21 20 22.6
002E670E 2019-04-16 07:20:08 21 20 22.4
002E670E 2019-04-16 06:46:50 21 20 22.3
002E670E 2019-04-16 06:13:32 21.1 20 22.1
002E670E 2019-04-16 05:40:13 21.1 20 22
002E670E 2019-04-16 05:06:54 21.1 20 22
002E670E 2019-04-16 04:33:35 21.2 20 22
002E670E 2019-04-16 04:00:16 21.2 20 21.9
002E670E 2019-04-16 03:26:57 21.2 20 21.7
002E670E 2019-04-16 02:53:37 21.2 20 21.7
002E670E 2019-04-16 02:20:19 21.2 20 21.6
002E670E 2019-04-16 01:47:01 21.2 20 21.6
002E670E 2019-04-16 01:13:43 21.2 20 21.5
002E670E 2019-04-16 00:40:25 21.2 20 21.5
002E670E 2019-04-16 00:07:07 21.2 20 21.6
002E670E 2019-04-15 23:33:49 21.2 20 21.9
002E670E 2019-04-15 23:00:32 21.2 19 22
002E670E 2019-04-15 22:27:12 21.2 19 22.1
002E670E 2019-04-15 21:53:54 21.2 19 21.9
002E670E 2019-04-15 21:20:36 21.2 19 21.9
002E670E 2019-04-15 20:47:17 21.2 19 22.1
002E670E 2019-04-15 20:13:59 21.2 19 22.3
002E670E 2019-04-15 19:40:43 21.2 19 22.3
002E670E 2019-04-15 19:07:25 21.2 19 23
002E670E 2019-04-15 18:34:08 21.2 19 23.2
002E670E 2019-04-15 18:00:48 21.4 19 23.2
002E670E 2019-04-15 17:27:29 21.4 19 23.3
002E670E 2019-04-15 16:54:11 21.4 19 23.4
002E670E 2019-04-15 16:20:52 21.6 19 23.7
002E670E 2019-04-15 15:47:32 21.6 19 23.8
002E670E 2019-04-15 15:14:13 21.6 18 23.8
002E670E 2019-04-15 14:40:53 21.8 18 23.8
002E670E 2019-04-15 14:07:35 21.9 18 23.9
002E670E 2019-04-15 13:34:14 22 18 24.1
002E670E 2019-04-15 13:00:54 22.2 18 24.1
002E670E 2019-04-15 12:27:34 22.5 17 24.3
002E670E 2019-04-15 11:54:15 22.5 17 24.5
002E670E 2019-04-15 11:20:58 22.5 16 24.6
002E670E 2019-04-15 10:47:42 22.5 16 24.7
002E670E 2019-04-15 10:14:25 22.3 17 24.6
002E670E 2019-04-15 09:41:08 22.3 17 24.6
002E670E 2019-04-15 09:07:49 22.2 17 24.6
002E670E 2019-04-15 08:34:30 22.1 17 24.6
002E670E 2019-04-15 08:01:11 22 16 24.7
002E670E 2019-04-15 07:27:52 22 17 24.6
002E670E 2019-04-15 06:54:33 21.9 17 24.6
002E670E 2019-04-15 06:21:13 21.9 17 24.5
002E670E 2019-04-15 05:47:53 21.8 17 24.5
002E670E 2019-04-15 05:14:35 21.8 17 24
002E670E 2019-04-15 04:41:16 21.8 17 24.1
002E670E 2019-04-15 04:07:58 21.8 17 24.1
002E670E 2019-04-15 03:34:40 21.8 17 24.6
002E670E 2019-04-15 03:01:23 21.8 17 24.6
002E670E 2019-04-15 02:28:06 21.8 17 24.5
002E670E 2019-04-15 01:54:48 21.8 17 24.6
002E670E 2019-04-15 01:21:31 21.8 17 24.7
002E670E 2019-04-15 00:48:12 21.8 17 24.7
002E670E 2019-04-15 00:14:54 21.8 17 24.8
002E670E 2019-04-14 23:41:35 21.8 17 24.8
002E670E 2019-04-14 23:08:17 21.8 17 24.8
002E670E 2019-04-14 22:34:59 21.8 18 24.9
002E670E 2019-04-14 22:01:42 21.9 18 24.9
002E670E 2019-04-14 21:28:24 22 18 24.9
002E670E 2019-04-14 20:55:04 22 18 24.8
002E670E 2019-04-14 20:21:46 22 18 24.9
002E670E 2019-04-14 19:48:27 22 18 24.9
002E670E 2019-04-14 19:15:09 22 18 25
002E670E 2019-04-14 18:41:50 22 18 24.9
002E670E 2019-04-14 18:08:30 22 18 25
002E670E 2019-04-14 17:35:11 22 18 25.1
002E670E 2019-04-14 17:01:51 22 18 25.2
002E670E 2019-04-14 16:28:31 22 18 25.2
002E670E 2019-04-14 15:55:12 22 18 25.2
002E670E 2019-04-14 15:21:52 22 18 25.2
002E670E 2019-04-14 14:48:34 22 18 25.1
002E670E 2019-04-14 14:15:15 22 18 25.1
002E670E 2019-04-14 13:41:55 22 18 24.7
002E670E 2019-04-14 13:08:36 22 18 24.7
002E670E 2019-04-14 12:35:17 22 18 24.6
002E670E 2019-04-14 12:01:59 22 18 24.6
002E670E 2019-04-14 11:28:40 22 18 24.6
002E670E 2019-04-14 10:55:20 22 18 24.6
002E670E 2019-04-14 10:22:01 22 18 25
002E670E 2019-04-14 09:48:41 22 18 25.1
002E670E 2019-04-14 09:15:20 22 18 25.1
002E670E 2019-04-14 08:42:02 22 18 25
002E670E 2019-04-14 08:08:45 22 18 25.1
002E670E 2019-04-14 07:35:25 22 18 25
002E670E 2019-04-14 07:02:07 22 18 25.1
002E670E 2019-04-14 06:28:47 21.9 18 25.1
002E670E 2019-04-14 05:55:27 22 18 25
002E670E 2019-04-14 05:22:07 22 18 24.9
002E670E 2019-04-14 04:48:49 21.9 18 24.9
002E670E 2019-04-14 04:15:30 21.9 18 24.9
002E670E 2019-04-14 03:42:12 22 18 24.8
002E670E 2019-04-14 03:08:53 22 18 24.8
002E670E 2019-04-14 02:35:33 22 18 25.2
002E670E 2019-04-14 02:02:14 22 18 25.2
002E670E 2019-04-14 01:28:54 22 18 25.3
002E670E 2019-04-14 00:55:36 22 18 25.6
002E670E 2019-04-14 00:22:14 22 18 25.6
002E670E 2019-04-13 23:48:54 22 18 25.7
002E670E 2019-04-13 23:15:34 22 17 25.6
002E670E 2019-04-13 22:42:14 22.1 17 25.7
002E670E 2019-04-13 22:08:52 22.1 17 25.7
002E670E 2019-04-13 21:35:33 22.1 17 25.7
002E670E 2019-04-13 21:02:13 22.2 17 25.6
002E670E 2019-04-13 20:28:51 22.2 17 25.4
002E670E 2019-04-13 19:55:30 22.2 17 25.3
002E670E 2019-04-13 19:22:09 22.2 17 25.3
002E670E 2019-04-13 18:48:49 22.2 17 25.2
002E670E 2019-04-13 18:15:28 22.2 17 25.2
002E670E 2019-04-13 17:42:08 22.2 17 25.2
002E670E 2019-04-13 17:08:47 22.2 17 25.1
002E670E 2019-04-13 16:35:26 22.2 17 25.3
002E670E 2019-04-13 16:02:07 22.2 17 25.3
002E670E 2019-04-13 15:28:47 22.3 17 25.4
002E670E 2019-04-13 14:55:27 22.4 17 25.4
002E670E 2019-04-13 14:22:08 22.4 17 25.4
002E670E 2019-04-13 13:48:48 22.5 18 25.5
002E670E 2019-04-13 13:15:28 22.5 17 25.4
002E670E 2019-04-13 12:42:07 22.5 17 25
002E670E 2019-04-13 12:08:46 22.5 18 24.9
002E670E 2019-04-13 11:35:28 22.5 18 25
002E670E 2019-04-13 11:02:08 22.5 18 24.6
002E670E 2019-04-13 10:28:50 22.5 18 24.6
002E670E 2019-04-13 09:55:31 22.4 17 24.6
002E670E 2019-04-13 09:22:13 22.5 17 24.6
002E670E 2019-04-13 08:48:55 22.4 17 24.5
002E670E 2019-04-13 08:15:35 22.5 17 24.6
002E670E 2019-04-13 07:42:15 22.5 17 25
002E670E 2019-04-13 07:08:55 22.5 17 25
002E670E 2019-04-13 06:35:34 22.5 17 25.3
002E670E 2019-04-13 06:02:14 22.4 17 25.4
002E670E 2019-04-13 05:28:54 22.5 17 25.3
002E670E 2019-04-13 04:55:33 22.4 17 25.7
002E670E 2019-04-13 04:22:14 22.5 17 26
002E670E 2019-04-13 03:48:55 22.5 17 26.3
002E670E 2019-04-13 03:15:36 22.5 17 26.3
002E670E 2019-04-13 02:42:15 22.5 17 26.1
002E670E 2019-04-13 02:08:56 22.5 17 26.2
002E670E 2019-04-13 01:35:37 22.5 17 26.2
002E670E 2019-04-13 01:02:17 22.5 18 26.3
002E670E 2019-04-13 00:28:58 22.6 18 26.4
002E670E 2019-04-12 23:55:38 22.7 18 26.4
002E670E 2019-04-12 23:22:17 22.7 18 26.5
002E670E 2019-04-12 22:48:59 22.7 18 26.6
002E670E 2019-04-12 22:15:40 22.7 18 26.7
002E670E 2019-04-12 21:42:21 22.9 18 26.8
002E670E 2019-04-12 21:09:00 22.9 18 26.9
002E670E 2019-04-12 20:35:40 22.9 18 27
002E670E 2019-04-12 20:02:20 22.9 17 27.1
002E670E 2019-04-12 19:29:00 22.9 17 27.3
002E670E 2019-04-12 18:55:39 22.9 17 27.5
002E670E 2019-04-12 18:22:19 23.1 16 27.7
002E670E 2019-04-12 17:48:59 23.1 16 27.3
002E670E 2019-04-12 17:15:39 23.2 17 27.7
002E670E 2019-04-12 16:42:20 23.3 18 27.2
002E670E 2019-04-12 16:09:00 23.3 18 27.5
002E670E 2019-04-12 15:35:40 23.2 18 28
002E670E 2019-04-12 15:02:19 23.1 18 27.3
002E670E 2019-04-12 14:28:59 22.9 19 25.8
002E670E 2019-04-12 13:55:38 22.5 19 18.6
002E670E 2019-04-12 13:22:18 21.8 20 13.6